User: anonymous   Login
Location: Boca do Mato
(22.9085°S, 43.2930°W)
Time: 14:00:14
(UTC+00:00)
Language:

Cosmos 2195 Rocket - Orbit

View from above orbital plane
View from above orbital plane
View from above satellite
View from above satellite

Ground track
Ground track

The orbit data is extracted from the following two-line orbital elements,

1 22007U 92036B   20274.71548854 -.00000024 +00000-0 -38739-4 0  9990
2 22007 082.9294 125.4605 0029933 190.3252 169.7295 13.77975706348699
Epoch (UTC): 30 September 2020 17:10:18
Eccentricity: 0.0029933
inclination: 82.9294°
perigee height: 949 km
apogee height: 993 km
right ascension of ascending node: 125.4605°
argument of perigee: 190.3252°
revolutions per day: 13.77975706
mean anomaly at epoch: 169.7295°
orbit number at epoch: 34869

The dashed part of the orbit path shows where the satellite is in the earth's shadow,  

DLR